Location: Andershausen
(51.8462°N, 9.8595°E)
Time: 02:53:53
(UTC+00:00)

Cosmos 2016 Rocket - Pass Details

Date: 18 November 2025
Orbit: 946 x 999 km, 83.0° (Epoch: 15 December)

Event Time Altitude Azimuth Distance (km) Brightness Sun altitude
Rises 16:24:01 0° 193° (SSW) 3,681 7.5 -8.9°
Reaches altitude 10° 16:26:31 10° 194° (SSW) 2,743 6.9 -9.3°
Maximum altitude 16:32:50 77° 281° (W) 1,025 4.3 -10.2°
Drops below altitude 10° 16:39:15 10° 8° (N) 2,782 6.1 -11.2°
Sets 16:41:48 0° 10° (N) 3,736 6.8 -11.5°
